TITAN 3C TRANSTAGE DEB, 13906

Orbit data source: Space-Track

TITAN 3C TRANSTAGE DEB, 13906 is space debris in HEO originally from a launch on Tue, 21 Dec 1965 UTC launched from the Air Force Eastern Test Range (AFETR). Debris objects in space refer to the collection of defunct objects orbiting the Earth. Examples of debris include non-operational satellites, rocket bodies, and fragments generated from explosions, collisions, or faulty payload assembly.

Loading next visibility...
Identifier
13906, 1965-108U
Orbit
HEO
Country
Flag of USUS
Related business
Manufacturer
Unknown
Mission
Spacecraft
Bus & Motor
Unknown
Mass
Unknown
Launch date (UTC)
1965-12-21 (61 years ago)
Launch vehicle
Unknown
Launch site
Air Force Eastern Test Range (AFETR)
Object type
Payload
Rocket body
Debris
Shape & HBR
Unknown shape, 0.5 m
Radar Cross Section
Medium (>0.1 m² and <1 m²)

Expand to show TLE details & history
Last TLE update: 6 days ago

TLE from 6 days ago
0 TITAN 3C TRANSTAGE DEB
1 13906U 65108U   26248.15389312 -.00000013  00000-0  78017-3 0  9994
2 13906  26.2099 227.3470 6743664 290.2859 224.3739  2.78185749345604
Epoch: 2026-09-05T03:41Z
TLE epoch observation values (Epoch: 2026-09-05T03:41:36.365Z)
Latitude
21.92601°
Longitude
-47.13412°
Altitude
27,825.29 km
Speed
2.155 km/s
True Right ascension
23h 30m 08s
True Declination
21° 54' 04"
Sunlit
Object was in daylight at epoch
Visualization orbit readout
Latitude
Unknown
Longitude
Unknown
Altitude
Unknown
Speed
Unknown
Apparent Right ascension
Unknown
Apparent Declination
Unknown
Sunlit
N/A
Visualization observer readout
Local Sidereal Time
19:04:52
Azimuth
Unknown
Elevation
Unknown
Doppler factor
Unknown
Orbital elements
Apogee altitude
29,385.064 km
Perigee altitude
577.151 km
Semi-major axis
21,359.244 km
Eccentricity
0.67437
Inclination
26.2099°
RAAN
227.347°
Arg. of periapsis
290.2859°
True anomaly
192.03909°
Mean anomaly
224.3739°
Eccentric anomaly
206.89536°
Mean motion
0.69529 °/min
Orbital period
517.77 mins
BSTAR
0.00078017
Loading maneuver chart data...
Computing Atmospheric mass density...

Documentation

Showing up to 5 results
|